Погода в Грамаду

Бразилия     29°23′34″S   50°53′02″W
темп.,
°C
ветер,
м/с
пор.,
м/с
влажн.,
%
обл.,
%
осадки,
мм/ч
давл.,
гПа
погр.,
м
27 февраля, сб
сб2700:00+16св12930 0.0 101851
03:00+16св12950 0.0 101730
06:00+15св11980 0.0 101823
09:00+23юв14693 0.0 1020749
12:00+26юв345953 0.1 10201256
15:00+24юв258540 2.5 10181016
18:00+22вюв388016 1.1 1018708
21:00+17в210918 1.1 1019625
28 февраля, вс
вс2800:00+15всв12983 0.0 101951
03:00+15в11977 0.0 101823
06:00+16вюв119466 0.0 101828
09:00+22вюв257143 0.0 1018932
12:00+26юв355043 0.0 10171506
15:00+26юв475928 0.1 10151329
18:00+22вюв27808 0.1 1014656
21:00+18вюв139924 0.1 1015152
1 марта, пн
пн100:00+18в169966 0.0 1014355
03:00+17св119955 0.0 101223
06:00+17ссв019923 0.0 101323
09:00+24вюв116813 0.0 1013558
12:00+29ю225026 0.1 10121487
15:00+27ююв346532 0.7 10111139
18:00+24юв25771 0.3 1010693
21:00+19всв12999 0.3 101232
2 марта, вт
вт200:00+18св129914 0.0 101229
03:00+17ссв119835 0.0 101126
06:00+17ссв119616 0.0 101226
09:00+25ююв01648 0.0 1013523
12:00+29ю225239 0.1 10131315
15:00+29ююв335530 0.5 10111448
18:00+23юв279136 1.2 1011624
21:00+20вюв129934 1.3 101496
3 марта, ср
ср300:00+19всв119966 0.0 101451
03:00+18всв119953 0.0 101424
06:00+18св11993 0.0 101425
09:00+24в01751 0.0 1016450
12:00+30ю22506 0.0 10151473
15:00+28юв346112 1.1 10131096
18:00+25юв367442 0.1 1013684
21:00+20всв129826 0.1 101534